TimeCDT,TemperatureF,Dew PointF,Humidity,Sea Level PressureIn,VisibilityMPH,Wind Direction,Wind SpeedMPH,Gust SpeedMPH,PrecipitationIn,Events,Conditions,WindDirDegrees,DateUTC
12:15 AM,70.3,62.6,76,30.01,10.0,Calm,Calm,-,N/A,,Clear,0,2013-07-06 05:15:00
12:35 AM,68.5,61.9,79,30.01,10.0,South,3.5,-,N/A,,Clear,170,2013-07-06 05:35:00
12:55 AM,68.0,62.4,82,30.01,10.0,South,3.5,-,N/A,,Clear,170,2013-07-06 05:55:00
1:15 AM,68.2,61.9,80,30.01,10.0,South,3.5,-,N/A,,Clear,190,2013-07-06 06:15:00
1:35 AM,68.0,62.1,81,30.01,10.0,South,4.6,-,N/A,,Clear,170,2013-07-06 06:35:00
1:55 AM,67.5,61.7,82,30.01,10.0,Calm,Calm,-,N/A,,Clear,0,2013-07-06 06:55:00
2:15 AM,67.5,61.9,82,30.01,10.0,South,3.5,-,N/A,,Clear,180,2013-07-06 07:15:00
2:35 AM,66.4,61.7,85,30.01,10.0,Calm,Calm,-,N/A,,Clear,0,2013-07-06 07:35:00
2:55 AM,66.2,61.5,85,30.01,10.0,South,4.6,-,N/A,,Clear,190,2013-07-06 07:55:00
3:15 AM,66.2,61.3,84,30.01,10.0,South,3.5,-,N/A,,Clear,180,2013-07-06 08:15:00
3:35 AM,66.2,61.3,84,30.01,10.0,Calm,Calm,-,N/A,,Clear,0,2013-07-06 08:35:00
3:55 AM,65.7,61.0,85,30.01,10.0,South,3.5,-,N/A,,Clear,180,2013-07-06 08:55:00
4:15 AM,64.9,60.8,86,30.01,10.0,Calm,Calm,-,N/A,,Clear,0,2013-07-06 09:15:00
4:35 AM,64.8,60.8,87,30.01,10.0,Calm,Calm,-,N/A,,Clear,0,2013-07-06 09:35:00
4:55 AM,64.8,61.0,88,30.01,10.0,Calm,Calm,-,N/A,,Clear,0,2013-07-06 09:55:00
5:15 AM,62.8,59.0,87,30.02,7.0,Calm,Calm,-,N/A,,Clear,0,2013-07-06 10:15:00
5:35 AM,62.2,59.9,92,30.02,5.0,Calm,Calm,-,N/A,,Clear,0,2013-07-06 10:35:00
5:55 AM,64.0,61.3,91,30.02,7.0,Calm,Calm,-,N/A,,Clear,0,2013-07-06 10:55:00
6:15 AM,64.0,61.3,91,30.02,7.0,Calm,Calm,-,N/A,,Clear,0,2013-07-06 11:15:00
6:35 AM,65.1,61.7,89,30.02,5.0,Calm,Calm,-,N/A,,Clear,0,2013-07-06 11:35:00
6:55 AM,67.5,63.0,85,30.02,7.0,South,3.5,-,N/A,,Clear,170,2013-07-06 11:55:00
7:15 AM,68.9,62.6,80,30.02,7.0,SW,3.5,-,N/A,,Clear,220,2013-07-06 12:15:00
7:35 AM,70.2,63.3,79,30.02,10.0,South,5.8,-,N/A,,Clear,170,2013-07-06 12:35:00
7:55 AM,71.6,63.0,74,30.02,10.0,South,5.8,-,N/A,,Clear,180,2013-07-06 12:55:00
8:15 AM,73.4,63.5,71,30.02,10.0,SSW,5.8,-,N/A,,Clear,200,2013-07-06 13:15:00
8:35 AM,74.8,63.7,68,30.02,10.0,SW,8.1,-,N/A,,Clear,220,2013-07-06 13:35:00
8:55 AM,77.0,64.0,64,30.02,10.0,SSW,5.8,-,N/A,,Clear,210,2013-07-06 13:55:00
9:15 AM,78.3,64.0,61,30.02,10.0,SSW,8.1,-,N/A,,Clear,200,2013-07-06 14:15:00
9:35 AM,79.9,64.2,59,30.02,10.0,SSW,9.2,-,N/A,,Clear,210,2013-07-06 14:35:00
9:55 AM,80.8,63.9,56,30.01,10.0,South,6.9,-,N/A,,Clear,190,2013-07-06 14:55:00
10:15 AM,81.7,63.7,54,30.01,10.0,SSW,8.1,-,N/A,,Clear,210,2013-07-06 15:15:00
10:35 AM,82.8,64.4,54,30.01,10.0,South,5.8,-,N/A,,Clear,190,2013-07-06 15:35:00
10:55 AM,83.5,63.7,51,30.01,10.0,South,8.1,-,N/A,,Clear,170,2013-07-06 15:55:00
11:15 AM,85.1,64.2,49,30.01,10.0,South,9.2,-,N/A,,Clear,180,2013-07-06 16:15:00
11:35 AM,85.1,63.7,49,30.01,10.0,South,8.1,-,N/A,,Clear,170,2013-07-06 16:35:00
11:55 AM,86.0,61.9,44,30.01,10.0,SW,8.1,-,N/A,,Clear,220,2013-07-06 16:55:00
12:15 PM,86.9,61.3,42,30.00,10.0,SW,9.2,-,N/A,,Scattered Clouds,220,2013-07-06 17:15:00
12:35 PM,86.2,60.3,41,30.00,10.0,SSW,10.4,-,N/A,,Scattered Clouds,210,2013-07-06 17:35:00
12:55 PM,87.8,59.7,39,29.99,10.0,SSW,5.8,-,N/A,,Scattered Clouds,200,2013-07-06 17:55:00
1:15 PM,87.8,60.6,40,29.99,10.0,South,9.2,-,N/A,,Scattered Clouds,190,2013-07-06 18:15:00
1:35 PM,88.0,59.5,38,29.99,10.0,SSW,5.8,-,N/A,,Scattered Clouds,200,2013-07-06 18:35:00
1:55 PM,89.4,59.4,36,29.98,10.0,South,10.4,-,N/A,,Scattered Clouds,180,2013-07-06 18:55:00
2:15 PM,87.1,59.2,39,29.98,10.0,SSE,8.1,-,N/A,,Scattered Clouds,160,2013-07-06 19:15:00
2:35 PM,89.8,59.4,36,29.98,10.0,South,9.2,-,N/A,,Scattered Clouds,180,2013-07-06 19:35:00
2:55 PM,89.6,58.1,34,29.98,10.0,South,8.1,-,N/A,,Clear,180,2013-07-06 19:55:00
3:15 PM,90.5,58.1,33,29.97,10.0,SSE,6.9,-,N/A,,Clear,160,2013-07-06 20:15:00
3:35 PM,90.5,58.5,34,29.97,10.0,South,9.2,-,N/A,,Clear,170,2013-07-06 20:35:00
3:55 PM,90.0,58.6,35,29.97,10.0,South,5.8,-,N/A,,Clear,190,2013-07-06 20:55:00
4:15 PM,89.1,57.4,34,29.97,10.0,South,8.1,-,N/A,,Scattered Clouds,190,2013-07-06 21:15:00
4:35 PM,89.4,59.4,36,29.96,10.0,SSE,11.5,-,N/A,,Clear,160,2013-07-06 21:35:00
4:55 PM,89.2,59.4,36,29.96,10.0,SSE,10.4,-,N/A,,Clear,160,2013-07-06 21:55:00
5:15 PM,88.3,59.5,38,29.96,10.0,South,9.2,-,N/A,,Clear,180,2013-07-06 22:15:00
5:35 PM,88.0,60.3,39,29.95,10.0,SSE,9.2,-,N/A,,Clear,160,2013-07-06 22:35:00
5:55 PM,87.3,60.3,40,29.95,10.0,South,9.2,16.1,N/A,,Clear,170,2013-07-06 22:55:00
6:15 PM,86.5,60.3,41,29.95,10.0,South,10.4,-,N/A,,Clear,170,2013-07-06 23:15:00
6:35 PM,86.0,62.1,44,29.94,10.0,South,6.9,-,N/A,,Clear,170,2013-07-06 23:35:00
6:55 PM,85.1,62.4,46,29.94,10.0,SSE,6.9,-,N/A,,Clear,160,2013-07-06 23:55:00
7:15 PM,84.2,62.6,48,29.94,10.0,South,6.9,-,N/A,,Clear,170,2013-07-07 00:15:00
7:35 PM,83.3,63.1,50,29.94,10.0,South,6.9,-,N/A,,Clear,170,2013-07-07 00:35:00
7:55 PM,81.5,63.0,53,29.94,10.0,South,4.6,-,N/A,,Clear,170,2013-07-07 00:55:00
8:15 PM,79.9,63.7,58,29.94,10.0,SSE,5.8,-,N/A,,Clear,160,2013-07-07 01:15:00
8:35 PM,78.1,64.4,63,29.95,10.0,South,3.5,-,N/A,,Clear,170,2013-07-07 01:35:00
8:55 PM,76.6,64.6,66,29.95,10.0,Calm,Calm,-,N/A,,Clear,0,2013-07-07 01:55:00
9:15 PM,75.4,64.6,69,29.96,10.0,SSE,4.6,-,N/A,,Clear,150,2013-07-07 02:15:00
9:35 PM,75.2,64.6,69,29.96,10.0,South,3.5,-,N/A,,Clear,170,2013-07-07 02:35:00
9:55 PM,73.4,64.6,74,29.96,10.0,Calm,Calm,-,N/A,,Clear,0,2013-07-07 02:55:00
10:15 PM,73.8,64.6,73,29.97,10.0,Calm,Calm,-,N/A,,Clear,0,2013-07-07 03:15:00
10:35 PM,72.9,64.6,75,29.98,10.0,Calm,Calm,-,N/A,,Clear,0,2013-07-07 03:35:00
10:55 PM,71.1,64.9,81,29.97,10.0,Calm,Calm,-,N/A,,Clear,0,2013-07-07 03:55:00
11:15 PM,69.4,63.9,82,29.98,10.0,Calm,Calm,-,N/A,,Clear,0,2013-07-07 04:15:00
11:35 PM,69.3,65.3,87,29.98,7.0,Calm,Calm,-,N/A,,Clear,0,2013-07-07 04:35:00
11:55 PM,69.1,64.9,87,29.98,7.0,Calm,Calm,-,N/A,,Clear,0,2013-07-07 04:55:00